Location: Burgwalden
(48.2830°N, 10.7576°E)
Time: 02:16:01
(UTC+00:00)

Cosmos 2082 Rocket - Pass Details

Date: 26 September 2023
Orbit: 834 x 852 km, 71.0° (Epoch: 04 December)

Event Time Altitude Azimuth Distance (km) Brightness Sun altitude
Exits shadow 04:24:56 - 294° (WNW) 2,928 4.5 -8.1°
Reaches altitude 10° 04:27:38 10° 317° (NW) 2,490 4.3 -7.6°
Maximum altitude 04:29:13 11° 333° (NNW) 2,413 4.4 -7.4°
Drops below altitude 10° 04:30:53 10° 350° (N) 2,497 4.6 -7.1°
Sets 04:35:32 0° 25° (NNE) 3,427 5.8 -6.3°
